STARLINK-35683

Last updated on Wed Dec 10 2025 00:02:05 GMT+0000 (Coordinated Universal Time)

1 66405U 25257AB 25343.66668981 -.01308126 00000+0 -35168-1 0 9995 2 66405 53.1588 278.5106 0001557 116.4894 233.2167 15.40571857 5847

Satellite not in orbit